• In Hungary
  • List of Countries
  • For 7 days
  • Water Temperature
  • Satellite Maps
  • Weather Map
  • News
  • Weather Widgets
  • user-avatar
    Login

    Hourly Weather Albena

    Today, 23 October, Monday

    Time Temperature Precipitation Wind Pressure Humidity
    00:00 +13°C° 0 mm 3 mps 746 mmHg 81%
    01:00 +13°C° 0 mm 4 mps 746 mmHg 83%
    02:00 +12°C° 0 mm 4 mps 745 mmHg 83%
    03:00 +12°C° 0 mm 4 mps 745 mmHg 83%
    04:00 +12°C° 0 mm 4 mps 744 mmHg 83%
    05:00 +12°C° 0 mm 5 mps 744 mmHg 83%
    06:00 +13°C° 0 mm 5 mps 744 mmHg 81%
    07:00 +13°C° 0 mm 5 mps 743 mmHg 79%
    08:00 +14°C° 0 mm 6 mps 743 mmHg 77%
    09:00 +14°C° 0 mm 6 mps 742 mmHg 74%
    10:00 +15°C° 0 mm 6 mps 742 mmHg 71%
    11:00 +16°C° 0 mm 6 mps 742 mmHg 69%
    12:00 +16°C° 0 mm 6 mps 741 mmHg 69%
    13:00 +16°C° 0 mm 6 mps 741 mmHg 70%
    14:00 +17°C° 0 mm 6 mps 740 mmHg 70%
    15:00 +16°C° 0 mm 6 mps 740 mmHg 74%
    16:00 +16°C° 0 mm 6 mps 739 mmHg 78%
    17:00 +15°C° 0 mm 5 mps 739 mmHg 82%
    18:00 +15°C° 0 mm 6 mps 739 mmHg 84%
    19:00 +15°C° 0 mm 6 mps 739 mmHg 87%
    20:00 +15°C° 0 mm 6 mps 738 mmHg 89%
    21:00 +15°C° 0 mm 6 mps 738 mmHg 90%
    22:00 +15°C° 0 mm 6 mps 738 mmHg 90%
    23:00 +15°C° 0 mm 5 mps 738 mmHg 91%

    Tomorrow, 24 October, Tuesday

    Time Temperature Precipitation Wind Pressure Humidity
    00:00 +15°C° 0 mm 5 mps 738 mmHg 91%
    01:00 +15°C° 0 mm 5 mps 738 mmHg 92%
    02:00 +15°C° 0 mm 5 mps 738 mmHg 92%
    03:00 +15°C° 0.1 mm 5 mps 738 mmHg 93%
    04:00 +15°C° 0.1 mm 5 mps 738 mmHg 93%
    05:00 +15°C° 0.1 mm 5 mps 737 mmHg 94%
    06:00 +15°C° 0.8 mm 5 mps 738 mmHg 91%
    07:00 +15°C° 0.8 mm 6 mps 738 mmHg 89%
    08:00 +16°C° 0.8 mm 6 mps 738 mmHg 86%
    09:00 +16°C° 0.5 mm 6 mps 739 mmHg 83%
    10:00 +17°C° 0.5 mm 6 mps 739 mmHg 80%
    11:00 +17°C° 0.5 mm 6 mps 740 mmHg 77%
    12:00 +17°C° 0.4 mm 6 mps 740 mmHg 76%
    13:00 +19°C° 0.4 mm 6 mps 740 mmHg 76%
    14:00 +18°C° 0.4 mm 7 mps 740 mmHg 76%
    15:00 +17°C° 1.9 mm 7 mps 741 mmHg 80%
    16:00 +16°C° 1.9 mm 6 mps 741 mmHg 84%
    17:00 +15°C° 1.9 mm 6 mps 741 mmHg 88%
    18:00 +15°C° 2 mm 7 mps 742 mmHg 88%
    19:00 +15°C° 2 mm 9 mps 742 mmHg 87%
    20:00 +14°C° 2 mm 10 mps 743 mmHg 87%
    21:00 +14°C° 0.4 mm 10 mps 743 mmHg 85%
    22:00 +13°C° 0.4 mm 10 mps 744 mmHg 83%
    23:00 +13°C° 0.4 mm 10 mps 744 mmHg 82%

    Day after tomorrow, 25 October, Wednesday

    Time Temperature Precipitation Wind Pressure Humidity
    00:00 +12°C° 0.3 mm 10 mps 745 mmHg 81%
    01:00 +11°C° 0.3 mm 11 mps 745 mmHg 80%
    02:00 +11°C° 0.3 mm 11 mps 745 mmHg 78%
    03:00 +9°C° 0.7 mm 11 mps 746 mmHg 78%
    04:00 +8°C° 0.7 mm 11 mps 746 mmHg 78%
    05:00 +7°C° 0.7 mm 12 mps 747 mmHg 77%
    06:00 +7°C° 0.6 mm 11 mps 747 mmHg 78%
    07:00 +6°C° 0.6 mm 11 mps 748 mmHg 78%
    08:00 +6°C° 0.6 mm 11 mps 749 mmHg 79%
    09:00 +6°C° 0.2 mm 11 mps 749 mmHg 78%
    10:00 +6°C° 0.2 mm 10 mps 750 mmHg 77%
    11:00 +6°C° 0.2 mm 10 mps 750 mmHg 76%
    12:00 +6°C° 0.2 mm 10 mps 750 mmHg 76%
    13:00 +6°C° 0.2 mm 10 mps 751 mmHg 75%
    14:00 +6°C° 0.2 mm 10 mps 751 mmHg 75%
    15:00 +6°C° 0.1 mm 9 mps 751 mmHg 74%
    16:00 +6°C° 0.1 mm 9 mps 752 mmHg 72%
    17:00 +7°C° 0.1 mm 8 mps 752 mmHg 71%
    18:00 +7°C° 0 mm 8 mps 753 mmHg 70%
    19:00 +7°C° 0 mm 8 mps 753 mmHg 69%
    20:00 +8°C° 0 mm 7 mps 754 mmHg 68%
    21:00 +6°C° 0 mm 7 mps 754 mmHg 70%
    22:00 +6°C° 0 mm 7 mps 754 mmHg 72%
    23:00 +5°C° 0 mm 6 mps 754 mmHg 73%

    26 October, Thursday

    Time Temperature Precipitation Wind Pressure Humidity
    00:00 +5°C° 0 mm 6 mps 755 mmHg 74%
    01:00 +4°C° 0 mm 6 mps 755 mmHg 75%
    02:00 +4°C° 0 mm 6 mps 755 mmHg 76%
    03:00 +4°C° 0 mm 6 mps 755 mmHg 77%
    04:00 +5°C° 0 mm 5 mps 755 mmHg 78%
    05:00 +3°C° 0 mm 5 mps 755 mmHg 78%
    06:00 +5°C° 0 mm 5 mps 755 mmHg 76%
    07:00 +5°C° 0 mm 5 mps 756 mmHg 74%
    08:00 +6°C° 0 mm 4 mps 756 mmHg 72%
    09:00 +7°C° 0 mm 4 mps 756 mmHg 67%
    10:00 +10°C° 0 mm 3 mps 756 mmHg 63%
    11:00 +12°C° 0 mm 3 mps 756 mmHg 58%
    12:00 +14°C° 0 mm 2 mps 756 mmHg 56%
    13:00 +15°C° 0 mm 2 mps 755 mmHg 54%
    14:00 +16°C° 0 mm 1 mps 755 mmHg 52%
    15:00 +15°C° 0 mm 2 mps 755 mmHg 56%
    16:00 +14°C° 0 mm 2 mps 754 mmHg 60%
    17:00 +14°C° 0 mm 2 mps 754 mmHg 64%
    18:00 +13°C° 0 mm 2 mps 754 mmHg 67%
    19:00 +12°C° 0 mm 2 mps 754 mmHg 70%
    20:00 +12°C° 0 mm 2 mps 754 mmHg 73%
    21:00 +10°C° 0 mm 3 mps 754 mmHg 74%
    22:00 +10°C° 0 mm 3 mps 754 mmHg 76%
    23:00 +10°C° 0 mm 3 mps 753 mmHg 77%

    27 October, Friday

    Time Temperature Precipitation Wind Pressure Humidity
    00:00 +10°C° 0 mm 3 mps 753 mmHg 78%
    01:00 +9°C° 0 mm 3 mps 752 mmHg 79%
    02:00 +9°C° 0 mm 3 mps 752 mmHg 79%
    03:00 +9°C° 0 mm 3 mps 751 mmHg 79%
    04:00 +9°C° 0 mm 3 mps 751 mmHg 79%
    05:00 +9°C° 0 mm 3 mps 750 mmHg 79%
    06:00 +9°C° 0 mm 3 mps 750 mmHg 77%
    07:00 +10°C° 0 mm 3 mps 750 mmHg 74%
    08:00 +10°C° 0 mm 3 mps 750 mmHg 71%
    09:00 +12°C° 0 mm 3 mps 749 mmHg 63%
    10:00 +14°C° 0 mm 4 mps 749 mmHg 56%
    11:00 +17°C° 0 mm 4 mps 749 mmHg 48%
    12:00 +18°C° 0 mm 4 mps 748 mmHg 46%
    13:00 +19°C° 0 mm 4 mps 747 mmHg 44%
    14:00 +20°C° 0 mm 4 mps 746 mmHg 41%
    15:00 +19°C° 0 mm 4 mps 746 mmHg 45%
    16:00 +18°C° 0 mm 4 mps 745 mmHg 49%
    17:00 +17°C° 0 mm 4 mps 744 mmHg 53%
    18:00 +15°C° 0 mm 4 mps 744 mmHg 55%
    19:00 +15°C° 0 mm 4 mps 744 mmHg 57%
    20:00 +14°C° 0 mm 4 mps 744 mmHg 59%
    21:00 +14°C° 0 mm 4 mps 743 mmHg 60%
    22:00 +14°C° 0 mm 4 mps 743 mmHg 61%
    23:00 +13°C° 0 mm 4 mps 743 mmHg 61%

    28 October, Saturday

    Time Temperature Precipitation Wind Pressure Humidity
    00:00 +13°C° 0 mm 4 mps 742 mmHg 62%
    01:00 +13°C° 0 mm 3 mps 742 mmHg 62%
    02:00 +13°C° 0 mm 3 mps 741 mmHg 62%
    03:00 +13°C° 0 mm 3 mps 741 mmHg 62%
    04:00 +13°C° 0 mm 3 mps 741 mmHg 61%
    05:00 +13°C° 0 mm 3 mps 741 mmHg 61%
    06:00 +13°C° 0 mm 5 mps 741 mmHg 63%
    07:00 +13°C° 0 mm 6 mps 741 mmHg 66%
    08:00 +12°C° 0 mm 7 mps 741 mmHg 69%
    09:00 +12°C° 0.2 mm 7 mps 742 mmHg 72%
    10:00 +12°C° 0.2 mm 8 mps 742 mmHg 74%
    11:00 +11°C° 0.2 mm 8 mps 743 mmHg 77%
    12:00 +11°C° 0.3 mm 7 mps 742 mmHg 75%
    13:00 +11°C° 0.3 mm 6 mps 742 mmHg 74%
    14:00 +12°C° 0.3 mm 5 mps 742 mmHg 72%
    15:00 +11°C° 0.1 mm 4 mps 742 mmHg 72%
    16:00 +11°C° 0.1 mm 3 mps 742 mmHg 71%
    17:00 +12°C° 0.1 mm 2 mps 742 mmHg 71%
    18:00 +11°C° 0 mm 3 mps 742 mmHg 73%
    19:00 +10°C° 0 mm 3 mps 742 mmHg 74%
    20:00 +10°C° 0 mm 4 mps 742 mmHg 76%
    21:00 +8°C° 0 mm 5 mps 742 mmHg 75%
    22:00 +8°C° 0 mm 5 mps 741 mmHg 75%
    23:00 +8°C° 0 mm 6 mps 741 mmHg 75%

    29 October, Sunday

    Time Temperature Precipitation Wind Pressure Humidity
    00:00 +8°C° 0 mm 6 mps 741 mmHg 75%
    01:00 +6°C° 0 mm 7 mps 740 mmHg 75%
    02:00 +6°C° 0 mm 7 mps 740 mmHg 75%
    03:00 +6°C° 0 mm 7 mps 739 mmHg 73%
    04:00 +6°C° 0 mm 8 mps 739 mmHg 71%
    05:00 +7°C° 0 mm 8 mps 738 mmHg 69%
    06:00 +7°C° 0 mm 8 mps 738 mmHg 69%
    07:00 +7°C° 0 mm 8 mps 738 mmHg 68%
    08:00 +7°C° 0 mm 8 mps 738 mmHg 68%
    09:00 +8°C° 0 mm 9 mps 738 mmHg 64%
    10:00 +9°C° 0 mm 10 mps 737 mmHg 60%
    11:00 +11°C° 0 mm 10 mps 737 mmHg 55%
    12:00 +11°C° 0.1 mm 11 mps 737 mmHg 54%
    13:00 +12°C° 0.1 mm 11 mps 737 mmHg 52%
    14:00 +12°C° 0.1 mm 12 mps 736 mmHg 50%
    15:00 +11°C° 0.1 mm 11 mps 737 mmHg 53%
    16:00 +9°C° 0.1 mm 10 mps 737 mmHg 57%
    17:00 +8°C° 0.1 mm 9 mps 737 mmHg 60%
    18:00 +9°C° 0 mm 8 mps 738 mmHg 60%
    19:00 +9°C° 0 mm 8 mps 738 mmHg 60%
    20:00 +8°C° 0 mm 7 mps 739 mmHg 60%
    21:00 +7°C° 0 mm 8 mps 740 mmHg 59%
    22:00 +6°C° 0 mm 9 mps 740 mmHg 58%
    23:00 +6°C° 0 mm 9 mps 741 mmHg 57%
    Show more